Regional Weather Roundup
Issued by NWS

Home | Current Version | Previous Version | Graphics & Text | Print | Product List | Glossary On
Versions: 1 2 3 4 5 6 7 8 9 10 11 12 13 14 15 16 17 18 19 20 21 22 23 24 25 26 27 28 29 30 31 32 33 34 35 36 37 38 39 40 41 42 43 44 45 46 47 48 49 50
000
ASUS43 KTOP 261108
RWRKS

WEATHER ROUNDUP FOR KANSAS
NATIONAL WEATHER SERVICE GOODLAND KS
500 AM CST WED NOV 26 2014

NOTE:  "FAIR" INDICATES FEW OR NO CLOUDS BELOW 12,000 FEET WITH NO
SIGNIFICANT WEATHER AND/OR OBSTRUCTIONS TO VISIBILITY.

KSZ001>006-013>018-027>032-041>047-261200-
NORTHWEST KANSAS

CITY           SKY/WX    TMP DP  RH WIND       PRES   REMARKS
GOODLAND       FLURRIES  32  30  92 NW24G31   30.13S WCI  19
HAYS           MOCLDY    39  27  60 NW16      30.04S WCI  30
HILL CITY      MOCLDY    39  29  67 W9        30.08R
RUSSELL        CLOUDY    42  28  57 NW10      30.02R
$$

KSZ061>065-074>080-084>089-261200-
SOUTHWEST KANSAS

CITY           SKY/WX    TMP DP  RH WIND       PRES   REMARKS
DODGE CITY     CLOUDY    39  32  76 NW17G26   30.07R WCI  30
ELKHART          N/A     32  24  72 NW10        N/A  WCI  24
GARDEN CITY    MOCLDY    37  30  75 NW20      30.09S WCI  27
GREAT BEND     CLOUDY    43  28  56 NW17G23   30.05R
LIBERAL        CLEAR     34  27  75 NW12      30.14R WCI  25
PRATT          CLOUDY    43  32  65 NW20      30.05R
$$

KSZ066>073-081>083-090>101-261200-
SOUTHEAST KANSAS

CITY           SKY/WX    TMP DP  RH WIND       PRES   REMARKS
CHANUTE        CLOUDY    39  26  59 W8        29.97R
COFFEYVILLE    CLOUDY    41  26  55 SW9       29.97R
HUTCHINSON     CLOUDY    45  30  55 NW12      30.01R
MEDICINE LODGE   N/A     46  32  58 N20       29.99F
NEWTON         CLOUDY    39  25  56 NW7       30.01R
PARSONS        CLOUDY    39  27  62 W7        29.98R
WICHITA INTL   CLOUDY    45  27  49 N12       30.00R
WICHITA JABRA  CLOUDY    41  28  60 NW9       29.99R
WICHITA MCCONL CLOUDY    43  27  52 NW9       29.99S
WINFIELD       CLOUDY    39  30  70 NW8       30.01R
$$

KSZ007>012-019>026-033>040-048>060-102>105-261200-
NORTHEAST KANSAS

CITY           SKY/WX    TMP DP  RH WIND       PRES   REMARKS
CONCORDIA      MOCLDY    39  28  64 NW10      29.99R WCI  32
EMPORIA        CLOUDY    41  30  65 NW5       29.96R
LAWRENCE       CLOUDY    38  34  85 SW5       29.94F
MANHATTAN      MOCLDY    41  30  65 W9        29.97R
MARYSVILLE     CLOUDY    37  30  75 NW13      29.94R WCI  29
OLATHE IND     LGT RAIN  37  34  89 W9G22     29.95F
OLATHE EXE     LGT RAIN  37  34  89 W12       29.94F WCI  29
SALINA         CLOUDY    43  30  60 NW12      30.01R
TOPEKA BILLARD CLOUDY    41  35  79 SW5       29.94S
TOPEKA FORBES  CLOUDY    39  34  82 W5        29.93S
$$


USA.gov is the U.S. government's official web portal to all federal, state and local government web resources and services.